www.pogodaiklimat.ru

Погода и климат >> Архив погоды >> Австрия >> Айген-им-Энсталь


ПОГОДА в Айген-им-Энсталь

  • Прогноз погоды в Айген-им-Энсталь
  • Монитор погоды в Айген-им-Энсталь

АРХИВ ПОГОДЫ в Айген-им-Энсталь

Время (UTC), дата Ветер
(напр.,м/с)
 
Видим.   Явления Облачность Т
(С)
Тd
(С)
f
(%)
Тe
(С)
Тes
(С)
Комфортность P
(гПа)
Po
(гПа)
Тmin
(С)
Tmax
(С)
R
(мм)
R24
(мм)
S
(см)
13 18.06 С 2 н/о н/о +24.6 +16.2 60 +28 +28 душно 1012.4 940.4
14 18.06 штиль 0 н/о в посл. час осадки н/о +23.1 +14.1 57 +27 +27 душно 1013.3 940.8 0.0
15 18.06 Ю 2 30 км в посл. час ливневой дождь {гроза} 9/5 1500 м
[Cu med, cong Ac cuf Ci fib]
+23.5 +12.7 51 +26 +28 жарко 1012.9 940.8
16 18.06 штиль 0 н/о н/о +23.2 +13.8 55 +27 +27 душно 1013.2 940.8
17 18.06 СВ 1 н/о н/о +20.8 +15.1 70 +25 +25 комфорт 1013.7 940.7 0.0
18 18.06 Ю 1 30 км {гроза, ливн. осадки} 6/0
[Ac cuf Ci fib]
+21.2 +14.0 63 +24 +24 комфорт 1013.6 940.9 +27.6 0.0
19 18.06 штиль 0 н/о н/о +19.7 +14.8 73 +21 +21 комфорт 1014.3 941.0
20 18.06 В 1 н/о н/о +17.7 +14.7 83 +19 +19 1015.3 941.4
21 18.06 СЗ 1 20 км 3/0
[Ci fib]
+15.8 +13.3 85 +16 +16 1015.3 941.2
22 18.06 штиль 0 н/о н/о +14.3 +12.2 87 +14 +14 1016.1 941.3
23 18.06 ЮЗ 1 н/о н/о +14.1 +12.2 88 +14 +14 1016.4 941.5
00 19.06 З 1 20 км ясно +12.8 +11.0 89 +13 +13 1016.6 941.6
01 19.06 штиль 0 н/о н/о +12.4 +10.8 90 +12 +12 1016.8 941.4
02 19.06 З 1 н/о н/о +10.3 +9.5 95 +10 +10 1017.4 941.4
03 19.06 С 1 20 км местами туман поземный 4/1 1500 м
[Cu hum Ac lent Ci fib]
+12.1 +10.9 92 +12 +12 1016.6 941.4
04 19.06 З 1 н/о н/о +10.6 +9.9 95 +10 +10 1017.4 941.5
05 19.06 ЮЗ 2 30 км 1/1 2000 м
[Cu hum Ac trans Ci fib]
+12.4 +11.2 92 +11 +13 1016.5 941.4
06 19.06 С 1 30 км 1/1 2000 м
[Cu hum Ac trans]
+15.2 +12.0 81 +16 +20 1015.5 941.2 +10.0
07 19.06 З 1 н/о н/о +18.0 +12.2 69 +19 +19 1014.6 940.8 0.0
08 19.06 СВ 1 н/о н/о +20.0 +12.4 62 +23 +23 комфорт 1013.3 940.1 0.0
09 19.06 С 2 30 км 4/1 2000 м
[Cu hum Ac trans Ci sp]
+22.6 +15.7 65 +27 +38 душно 1011.2 939.1
10 19.06 СВ 1 н/о н/о +25.3 +13.7 49 +28 +28 жарко 1010.4 938.6
11 19.06 В 2 н/о н/о +25.2 +13.1 47 +27 +27 жарко 1009.4 937.7
12 19.06 Ю 7 20 км гроза, ливневой дождь 9/4 1500 м
[Cb cap Ac cuf Ci ing]
+21.7 +10.5 49 +23 +25 комфорт 1011.2 938.7 0.0
13 19.06 В 2 н/о ливневой дождь н/о +19.7 +13.2 66 +22 +22 комфорт 1012.8 939.5 0.1
14 19.06 В 4 н/о н/о +18.6 +14.8 79 +19 +19 1013.4 939.9 0.0
15 19.06 С 2 20 км в посл. час ливневой дождь {гроза} 9/4 2000 м
[Cu Sc Ac cuf]
+18.4 +14.7 79 +19 +22 1013.1 939.8
16 19.06 З 1 н/о н/о +18.6 +15.4 82 +21 +21 комфорт 1013.0 939.5 0.0
17 19.06 З 2 н/о н/о +18.4 +14.4 78 +19 +19 1013.4 939.8
18 19.06 З 2 30 км {гроза, ливн. осадки} 9/0
[Ac cuf Ci ing]
+18.1 +14.6 80 +19 +19 1012.9 939.5 +25.9 0.3
19 19.06 С 1 н/о н/о +17.0 +14.6 86 +18 +18 1013.4 939.5
20 19.06 З 1 н/о н/о +16.0 +13.7 86 +17 +17 1013.9 939.7
21 19.06 ЮЗ 2 20 км 5/0
[Ac lent Ci fib]
+14.5 +12.7 89 +14 +14 1014.3 939.9
22 19.06 ЮЗ 1 н/о н/о +13.9 +12.8 93 +14 +14 1014.8 940.0
23 19.06 З 1 н/о н/о +13.3 +12.2 93 +13 +13 1015.1 940.1
00 20.06 штиль 0 20 км 1/1 2000 м
[Cu hum Ac lent Ci fib]
+12.3 +11.5 95 +12 +12 1015.5 940.2
01 20.06 СЗ 1 н/о н/о +11.0 +10.3 95 +11 +11 1015.8 940.1
02 20.06 З 1 н/о н/о +9.9 +9.2 95 +9 +9 1015.8 939.8
03 20.06 10 км местами туман поземный 3/3 180 м
[]
+9.1 +8.7 97 1016.0 940.0
04 20.06 ЮЗ 1 н/о н/о +10.3 +10.0 98 +10 +10 1016.8 940.8
05 20.06 15 км 5/3 120 м
[Cu Sc Ac lent Ci fib]
+11.9 +10.8 93 1016.4 941.1
06 20.06 С 1 30 км 5/1 1500 м
[Cu hum Ac lent Ci fib]
+14.0 +11.5 85 +14 +18 1016.0 941.4 +7.9
07 20.06 штиль 0 н/о н/о +16.7 +12.1 74 +17 +17 1015.3 941.1
08 20.06 З 1 н/о н/о +20.3 +14.1 68 +24 +24 комфорт 1013.5 940.4
09 20.06 С 1 40 км 5/1 1500 м
[Cu hum Ac lent Ci fib]
+21.1 +13.2 61 +23 +36 комфорт 1016.1 940.2
10 20.06 штиль 0 н/о н/о +23.9 +12.3 48 +26 +26 жарко 1012.0 939.8 0.0
11 20.06 СВ 2 н/о н/о +25.5 +14.0 49 +28 +28 жарко 1010.8 939.1
12 20.06 С 4 40 км 6/4 1500 м
[Cb calv Ac lent Ci fib]
+26.2 +14.1 47 +28 +34 жарко 1009.9 938.6
13 20.06 Ю 5
{14}
н/о н/о +21.3 +11.0 52 +23 +23 комфорт 1012.0 939.1 0.0
14 20.06 ЮЗ 2
{14}
н/о в посл. час осадки н/о +18.1 +13.3 74 +19 +19 1012.7 939.1 0.0
15 20.06 С 2 30 км осадки на расстоянии {гроза, ливн. осадки} 6/6 1500 м
[Cb calv Ac lent]
+20.1 +13.6 66 +23 +26 комфорт 1010.7 937.9
16 20.06 З 3 н/о н/о +20.1 +15.6 75 +23 +23 комфорт 1011.7 938.7
17 20.06 ЮЗ 2 н/о ливневой дождь н/о +18.7 +15.0 79 +20 +20 1013.0 939.5 0.1
18 20.06 С 3 30 км в посл. час ливневой дождь {гроза} 9/9 1500 м
[Sc diur, vesp Ac lent]
+18.4 +14.9 80 +19 +19 1013.4 940.1 +26.5 0.3
19 20.06 З 4 н/о н/о +19.0 +11.6 62 +20 +20 1015.5 941.8
20 20.06 ЮЗ 5 н/о осадки н/о +16.3 +13.5 83 +15 +15 1016.4 942.1 0.1
21 20.06 С 1 15 км в посл. час ливневой дождь 9/6 1200 м
[Cu med, cong Ac lent]
+15.3 +13.9 91 +16 +16 1015.9 942.5
22 20.06 З 1 н/о в посл. час осадки н/о +15.3 +13.8 91 +16 +16 1017.8 943.1 0.1
23 20.06 З 1 н/о н/о +14.8 +13.4 91 +15 +15 1017.9 943.1
00 21.06 С 2 15 км {ливн. осадки} 8/3 1500 м
[Cu hum Ac lent]
+13.9 +12.8 93 +13 +13 1018.2 943.4 0.2
01 21.06 З 1 н/о н/о +12.9 +12.1 95 +13 +13 1018.9 943.5
02 21.06 З 1 н/о н/о +13.0 +12.1 94 +13 +13 1018.8 943.4
03 21.06 С 2 20 км 6/5 120 м
[Sc Ac und]
+12.5 +11.9 96 +11 +11 1018.7 943.5
04 21.06 СЗ 1 н/о н/о +12.6 +11.9 95 +13 +13 1019.2 943.7
05 21.06 ЮЗ 2 30 км 6/1 90 м
[Sc Ac und Ci fib]
+13.8 +12.2 90 +13 +14 1018.6 943.7
06 21.06 ЮЗ 1 30 км 6/1 90 м
[Sc Ac und Ci fib]
+14.2 +12.5 90 +14 +18 1018.6 943.8 +11.7 0.2
07 21.06 В 1 н/о н/о +17.0 +12.9 77 +18 +18 1018.3 944.0
08 21.06 ЮВ 1 н/о н/о +19.2 +12.9 67 +22 +22 комфорт 1017.3 943.6
09 21.06 40 км 8/1 1350 м
[Cu hum Ac lent Ci fib]
+20.7 +13.1 62 1016.3 943.3
10 21.06 В 2 н/о н/о +23.0 +12.4 51 +26 +26 жарко 1015.7 943.0 0.0
11 21.06 В 2 н/о н/о +24.1 +11.8 46 +26 +26 жарко 1015.0 942.6
12 21.06 СВ 2 40 км 8/4 1500 м
[Cu med, cong Ac cuf Ci fib]
+24.2 +12.2 47 +26 +33 жарко 1014.2 942.1
13 21.06 В 5 н/о н/о +24.8 +13.5 49 +27 +27 жарко 1013.7 941.6
14 21.06 СВ 2 н/о н/о +25.8 +13.9 48 +28 +28 жарко 1012.8 941.0
15 21.06 С 1 30 км слаб. ливневой дождь 9/5 1500 м
[Cu med, cong Ac cuf Ci fib]
+22.7 +15.0 62 +27 +29 душно 1013.7 941.4
16 21.06 З 2
{14}
н/о осадки н/о +17.2 +14.8 86 +18 +18 1016.8 942.7 1
17 21.06 штиль 0 н/о в посл. час осадки н/о +18.0 +15.5 85 +18 +18 1017.0 943.1 0.4
18 21.06 В 1 30 км в посл. час ливневой дождь 9/5 1200 м
[Cu med, cong Ac cuf]
+17.6 +16.1 91 +19 +19 1017.0 943.3 +25.8 1
19 21.06 С 1 н/о н/о +16.7 +15.7 94 +18 +18 1018.1 943.8
20 21.06 С 1 н/о н/о +16.3 +15.4 94 +17 +17 1019.0 944.5
21 21.06 С 1 20 км 9/1 150 м
[St Ac cuf]
+16.1 +15.2 94 +17 +17 1019.1 944.9
22 21.06 штиль 0 н/о н/о +15.4 +15.0 97 +15 +15 1019.9 945.1
23 21.06 С 1 н/о н/о +15.3 +14.8 97 +16 +16 1020.0 945.2
00 22.06 20 км 9/9 180 м
[Cu Sc]
+15.2 +14.7 97 1019.5 944.9
01 22.06 ЮЗ 1 н/о н/о +15.5 +14.7 95 +16 +16 1019.6 944.9 0.0
02 22.06 штиль 0 н/о осадки н/о +15.4 +14.4 94 +15 +15 1019.2 944.5 0.3
03 22.06 ЮВ 1 20 км в посл. час ливневой дождь 9/5 90 м
[Cu Sc Ac und]
+14.7 +14.2 97 +15 +15 1019.1 944.4
04 22.06 ЮЗ 1 н/о н/о +14.8 +14.5 98 +15 +15 1019.0 944.1
05 22.06 10 км {ливн. осадки} 9/8 90 м
[Sc]
+15.2 +14.8 97 1018.6 944.1
06 22.06 С 2 15 км {ливн. осадки} 9/8 90 м
[Sc Ci fib]
+16.3 +14.8 91 +16 +17 1017.9 943.7 +14.0 0.3
07 22.06 В 2 н/о н/о +17.9 +15.1 84 +18 +18 1017.4 943.4
08 22.06 В 1 н/о н/о +18.2 +14.9 81 +20 +20 1017.2 943.3
09 22.06 С 2 30 км 9/1 1200 м
[Cu hum Ac trans Ci fib]
+19.8 +15.7 77 +23 +30 комфорт 1015.8 942.7
10 22.06 СВ 2 н/о н/о +21.5 +15.7 70 +25 +25 комфорт 1014.7 941.8 0.0
11 22.06 СВ 4 н/о н/о +21.9 +15.0 65 +25 +25 комфорт 1014.2 941.4 0.0
12 22.06 СВ 4 30 км 9/1 1200 м
[Sc Ac trans Ci fib]
+22.4 +15.0 63 +26 +32 жарко 1013.6 941.2
13 22.06 ЮЗ 4 н/о осадки н/о +18.2 +12.0 67 +18 +18 1017.1 943.1 0.7
14 22.06 В 2 н/о осадки н/о +16.6 +14.7 89 +17 +17 1018.0 943.7 2
15 22.06 С 1 20 км в посл. час дождь {гроза} 9/4 450 м
[Sc Ac cuf Ci fib]
+17.2 +14.9 86 +18 +22 1016.1 942.3
16 22.06 штиль 0 н/о н/о +18.5 +14.0 75 +19 +19 1015.2 941.5
17 22.06 З 2 н/о н/о +17.0 +14.8 87 +17 +17 1014.9 940.9
18 22.06 С 1 30 км {дождь} 3/1 1200 м
[Cu hum Ac trans Ci fib]
+17.0 +14.4 85 +18 +18 1014.6 940.8 +22.8 4
19 22.06 ЮЗ 1 н/о н/о +15.4 +14.2 93 +16 +16 1015.2 940.8
20 22.06 З 1 н/о н/о +13.7 +12.8 94 +14 +14 1015.7 940.8
21 22.06 20 км 9/9 630 м
[Cu Sc]
+14.4 +13.4 94 1016.1 941.6
22 22.06 З 2 н/о н/о +14.4 +13.1 92 +14 +14 1016.7 941.9
23 22.06 З 1 н/о н/о +14.4 +13.0 91 +15 +15 1017.0 942.1
00 23.06 С 2 20 км 9/4 960 м
[Cu hum Ac trans Ci fib]
+13.8 +12.5 92 +13 +13 1016.7 941.9
01 23.06 З 2 н/о н/о +14.1 +12.3 89 +14 +14 1016.9 942.0
02 23.06 З 1 н/о н/о +13.7 +12.5 92 +14 +14 1017.2 942.1
03 23.06 С 1 20 км 9/9 1050 м
[Cu Sc]
+13.5 +12.2 92 +14 +14 1016.7 942.0
04 23.06 ЮЗ 1 н/о н/о +13.7 +12.6 93 +14 +14 1017.3 942.2 0.0
05 23.06 20 км в посл. час ливневой дождь 9/9 120 м
[Cu Sc Ac trans]
+13.9 +12.9 94 1017.4 942.6
06 23.06 ЮЗ 3 н/о н/о +14.9 +13.3 90 +14 +14 1017.5 942.7 +13.3 +17.6 0.0
07 23.06 ЮЗ 3 н/о н/о +16.5 +12.7 78 +16 +16 1017.4 943.0
08 23.06 ЮЗ 2 н/о н/о +16.5 +13.3 81 +17 +17 1017.6 943.2
09 23.06 25 км 9/9 660 м
[Cu Sc]
+17.1 +13.7 80 1017.3 943.3
10 23.06 ЮЗ 2 н/о н/о +18.3 +14.2 77 +19 +19 1017.4 943.5
11 23.06 ЮЗ 1 н/о н/о +19.9 +13.5 67 +23 +23 комфорт 1016.9 943.4 0.0
12 23.06 С 2 30 км 9/8 960 м
[Cu Sc Ac cuf]
+20.4 +13.3 64 +23 +26 комфорт 1016.6 943.5
13 23.06 СВ 1 н/о н/о +20.4 +13.3 64 +24 +24 комфорт 1016.9 943.5
14 23.06 СВ 1 н/о н/о +19.9 +15.6 76 +23 +23 комфорт 1016.8 943.4 0.0
15 23.06 С 1 30 км в посл. час ливневой дождь 9/6 600 м
[Cu Sc Ac cuf]
+19.2 +15.7 80 +22 +24 комфорт 1016.9 943.5
16 23.06 СЗ 1 н/о н/о +19.3 +15.3 78 +22 +22 комфорт 1017.4 943.8 0.0
17 23.06 С 1 н/о в посл. час осадки н/о +17.5 +15.7 89 +19 +19 1018.6 944.5 0.0
18 23.06 С 2 25 км в посл. час ливневой дождь 9/6 360 м
[Cu Sc Ac cuf Ci fib]
+17.4 +15.7 90 +18 +18 1019.1 945.1 +21.8 0.2
19 23.06 ЮЗ 1 н/о н/о +17.0 +15.5 91 +18 +18 1019.6 945.3
20 23.06 С 1 н/о в посл. час осадки н/о +16.3 +15.4 94 +17 +17 1020.9 946.3 0.0
21 23.06 штиль 0 20 км {ливн. осадки} 9/8 270 м
[Cu Sc Ac trans]
+16.7 +15.3 91 +17 +17 1020.9 946.6
22 23.06 ЮЗ 1 н/о н/о +16.1 +14.8 92 +17 +17 1021.3 946.6
23 23.06 ЮЗ 2 н/о н/о +15.6 +14.9 96 +15 +15 1021.7 946.8
00 24.06 20 км {ливн. осадки} 9/9 1050 м
[Cu Sc]
+15.8 +14.3 91 1021.6 947.0 0.0
01 24.06 штиль 0 н/о н/о +15.6 +14.6 94 +15 +15 1022.2 947.3 0.0
02 24.06 штиль 0 н/о н/о +15.4 +14.4 94 +15 +15 1022.3 947.3
03 24.06 С 1 20 км {ливн. осадки} 3/1 120 м
[St Ac lent Ci fib]
+13.9 +13.6 98 +14 +14 1022.4 947.3
04 24.06 штиль 0 н/о н/о +13.5 +13.4 99 +13 +13 1023.1 947.6
05 24.06 ЮЗ 2 15 км в посл. час туман 1/1 150 м
[Cu Sc]
+14.6 +14.1 97 +14 +16 1022.4 947.5
06 24.06 ЮЗ 2 18 км {ливн. осадки, туман} 1/1 360 м
[Cu Sc Ac lent]
+16.2 +14.2 88 +16 +20 1022.2 947.7 +11.9 0.0
07 24.06 В 1 н/о н/о +18.7 +14.7 78 +21 +21 комфорт 1021.7 947.6
08 24.06 В 1 н/о н/о +20.6 +14.5 68 +24 +24 комфорт 1020.9 947.3 0.0
09 24.06 30 км 3/1 1260 м
[Cu Sc]
+22.4 +15.1 63 1019.8 947.0
10 24.06 СВ 2 н/о н/о +23.6 +14.4 56 +26 +26 жарко 1019.7 946.9 0.0
11 24.06 СВ 2 н/о н/о +24.7 +15.5 57 +28 +28 душно 1019.2 946.7
12 24.06 СВ 3 40 км 3/3 1500 м
[Cu med, cong]
+25.3 +15.7 55 +28 +39 жарко 1018.4 946.4
13 24.06 СВ 3 н/о н/о +25.9 +14.5 49 +28 +28 жарко 1018.5 946.3
14 24.06 СВ 3 н/о н/о +26.4 +14.1 47 +29 +29 жарко 1017.9 945.9
15 24.06 СВ 3 40 км 1/1 1500 м
[Cu hum]
+26.9 +14.7 47 +29 +36 жарко 1017.4 945.8
16 24.06 СВ 3 н/о н/о +26.4 +15.8 52 +30 +30 душно 1017.8 945.8
17 24.06 В 3 н/о н/о +25.5 +14.5 51 +28 +28 жарко 1018.0 945.8
18 24.06 С 2 40 км 1/1 1500 м
[Cu Sc]
+23.3 +15.6 62 +28 +28 душно 1018.9 946.3 +26.9
19 24.06 С 1 н/о н/о +20.8 +15.2 70 +25 +25 комфорт 1020.3 946.8
20 24.06 С 2 н/о н/о +19.5 +14.9 75 +22 +22 комфорт 1021.6 947.7
21 24.06 30 км 4/4 1500 м
[Sc]
+19.3 +14.4 73 1021.9 948.2
22 24.06 ЮВ 2 н/о н/о +19.6 +14.3 71 +22 +22 комфорт 1022.3 948.4
23 24.06 В 3 н/о н/о +17.3 +14.4 83 +17 +17 1022.9 948.4
00 25.06 С 2 25 км ясно +15.9 +13.9 88 +16 +16 1023.1 948.4
01 25.06 ЮЗ 1 н/о н/о +14.4 +12.9 91 +15 +15 1023.8 948.4
02 25.06 З 1 н/о н/о +14.3 +13.3 94 +15 +15 1023.5 948.1
03 25.06 700 м туман местами ясно +11.5 +11.1 97 1024.1 948.2
04 25.06 700 м туман местами ясно +11.5 +11.1 97 1024.1 948.2
05 25.06 50 км {туман} ясно +15.0 +13.6 91 1023.5 948.6
06 25.06 С 2 50 км {туман} ясно +17.2 +14.4 84 +18 +22 1022.8 948.5 +11.4
07 25.06 ЮЗ 1 н/о н/о +20.2 +15.0 72 +24 +24 комфорт 1021.9 948.2 0.0
08 25.06 В 2 н/о н/о +22.2 +15.2 65 +26 +26 душно 1021.2 948.0 0.0
09 25.06 50 км 1/0
[Ci fib]
+25.5 +17.3 60 1019.7 947.7
10 25.06 СВ 2 н/о н/о +27.2 +16.4 52 +31 +31 душно 1019.6 947.7
11 25.06 СВ 2 н/о н/о +28.8 +17.3 50 +33 +33 очень
душно
1018.7 947.3
12 25.06 50 км 1/1 2000 м
[Cu hum]
+29.8 +17.2 47 1018.2 947.3

 

Местоположение метеостанции Айген-им-Энсталь (Австрия): широта 47.53 долгота 14.13 высота над уровнем моря 649 м.

В архиве по умолчанию представлена погода в Айген-им-Энсталь за последнюю неделю. Архивные данные за месяц целиком и за предыдущие месяцы, начиная с января 2011 года, Вы можете получить, выбрав интересующий диапазон дат из раскрывающегося списка и нажав кнопку "Ввод!".


*Определитесь, кто Вы:
робот инопланетянин человек

Внимание! Время в таблицах - всемирное. Для получения местного времени необходимо прибавить поправку, которая равна 1 ч.

Смотрите также архив погоды в соседних городах и на ближайших метеорологических станциях:

Погода в Бад-Миттерндорфе (Австрия) (15 км)
Погода в Грёбминге (Австрия) (19 км)
Погода в Виндишгарстене (Австрия) (27 км)
Погода в Бад-Аусзе (Австрия) (28 км)
Погода в Рамзау (Австрия) (39 км)
Погода в Бад-Гойзерне (Австрия) (40 км)
Погода в Фойеркогеле (Австрия) (45 км)
Погода в Мурау (Австрия) (46 км)
Погода в Гмундене (Австрия) (48 км)
Погода в Кальванге (Австрия) (49 км)

Пояснения к столбцам:

Ветер - указаны скорость ветра в м/с - средняя за 10 мин, порывы в срок и между сроками (в фигурных скобках) и направление, откуда дует ветер: С - северный, СВ - северо-восточный, В - восточный, ЮВ - юго-восточный, Ю - южный, ЮЗ - юго-западный, З - западный, СЗ - северо-западный.
Видимость - горизонтальная дальность видимости в метрах или километрах. При видимости от 1 до 10 км при отсутствии осадков обычно наблюдается дымка, при ухудшении видимости до 1 км и менее - туман. В сухую погоду видимость может ухудшаться дымом, пылью или мглою.
Явления - указаны атмосферные явления, наблюдавшиеся в срок или в последний час перед сроком; фигурными скобками обозначены явления, наблюдавшиеся между сроками (за 1-3 часа до срока); квадратными скобками обозначены град или гололедные отложения с указанием их диаметра в мм.
Облачность - указаны через наклонную черту общая и нижняя облачность в баллах и высота нижней границы облаков в метрах; квадратными скобками обозначены формы облаков: Ci - перистые, Cs - перисто-слоистые, Cc - перисто-кучевые, Ac - высококучевые, As - высокослоистые, Sc - слоисто-кучевые, Ns - слоисто-дождевые, Cu - кучевые, Cb - кучево-дождевые. Подробнее классификацию облаков см. в Атласе облаков (PDF).
T - Температура воздуха - температура, измеренная на высоте 2 м над землей.
Td - Температура точки росы - температура, при понижении до которой содержащийся в воздухе водяной пар достигнет насыщения.
f - Относительная влажность воздуха - влажноcть воздуха, измеренная на высоте 2 м над землей.
Te - Эффективная температура - температура, которую ощущает одетый по сезону человек в тени. Характеристика душности погоды. При расчете учитывается влияние влажности воздуха и скорости ветра на теплоощущения человека.
Tes - Эффективная температура на солнце - температура, которую ощущает человек, с поправкой на солнечный нагрев. Характеристика знойности погоды. Зависит от высоты солнца над горизонтом, облачности и скорости ветра. Ночью, в пасмурную погоду, а также при ветре 12 м/с и более поправка равна нулю.
P - Атмосферное давление - приведенное к уровню моря атмосферное давление.
Po - Атмосферное давление - измеренное на уровне метеостанции атмосферное давление.
Tmin - Минимальная температура - минимум температуры воздуха на высоте 2 м над землей.
Tmax - Максимальная температура - максимум температуры воздуха на высоте 2 м над землей.
R - Количество осадков - Количество выпавших осадков за период времени, мм. При наведении курсора мыши на число - период времени, за который выпало указанное количество осадков.
R24 - Количество осадков - Количество выпавших осадков за 24 часа, мм.
S - Снежный покров - Высота снежного покрова, см. При наведении курсора мыши на число - состояние снежного покрова и степень покрытия местности в баллах.